Reflectivity
-20 -20 -20 -20 -20 -20 -20 -20 -20 -20 -20 -20 -20 -20 -20 -20 -20 -20 -20 -20 -20 -20 -20 -20 -20 -20 -20 -20 -20 -20 -20 -16 -13 -3 -20 -20 -2 -12 -20 -20 -20 -20 -20 -20
-20 -20 -20 -20 -20 -20 -20 -20 -20 -9 -20 -20 -20 -20 -20 -20 -20 -20 -20 -20 -20 -20 -20 -20 -20 -20 -20 -20 -20 -20 -18 -18 -20 -8 -20 4 -10 -6 -20 -20 -20 -20 -20 -20
-20 -20 -20 -20 -20 -20 -20 -20 -18 -18 -20 -20 -20 -20 -20 -20 -20 -20 -20 -20 -20 -20 -20 -20 -19 -17 -17 -20 -20 -18 -19 -19 -20 -18 -20 -20 3 1 -1 -20 -20 -20 -20 -20
-20 -20 -20 -20 -20 -20 -20 -20 -20 -20 -20 -20 -20 -20 -20 -20 -20 -20 -20 -20 -20 -20 -20 -20 -18 -20 -17 -19 -20 -20 -18 -20 -11 12 -2 -20 -9 -1 -20 -20 -18 -20 -20 -20
-20 -16 -20 -20 -20 -20 -20 -20 -20 -20 -20 -20 -20 -20 -20 -20 -20 -20 -20 -20 -20 -20 -20 -9 -20 -16 -18 -20 -18 -17 -18 -16 5 10 -1 -19 -12 -0 -20 -11 -3 -20 -5 -20
-20 -20 -20 -20 -20 -20 -20 -20 -20 -20 -16 -1 -17 -19 -20 -20 -18 -20 -20 -20 -20 -20 -20 -20 -15 -20 -19 -20 -17 -6 -18 10 8 -4 -20 -20 -5 -19 -20 -12 -7 1 2 -20
-20 -20 -20 -20 -5 -12 -2 -20 -20 -10 12 13 6 5 3 1 -5 -20 -20 -20 -20 -20 -20 -7 -16 -19 -20 -18 -17 3 -6 -13 -20 2 -3 -7 -16 -20 -20 0 -4 5 3 -20
-19 -19 -8 6 -1 -17 -6 -20 -20 -16 -2 11 -1 11 7 2 -15 -20 -20 -20 -20 -20 -20 -20 -20 1 -20 -19 -16 -12 -19 -2 -20 -18 6 -6 -20 -10 3 -2 8 7 2 -20
-15 -20 -16 -20 -20 -20 -20 -20 -2 -4 4 11 -11 11 10 -4 -7 -20 -20 -20 -20 -20 -20 -20 -20 5 3 -20 -10 -9 -15 17 -14 -20 -20 -20 -8 1 8 7 7 5 3 -10
-20 -20 -20 -20 -20 -20 -20 -20 -20 -4 -3 12 -9 3 5 -16 -7 -20 -20 -20 -20 -20 -20 -20 -20 -12 -4 -17 -18 -16 -20 -0 -3 -20 -20 -16 -12 2 7 9 1 8 2 -19
-20 -20 -20 -20 -20 -20 -20 -20 -20 -20 -19 1 -8 -9 -5 -11 -20 -20 -20 -20 -20 -20 -20 -20 -20 -14 3 -3 -17 -19 -20 -3 -3 -20 -8 -2 -20 -20 -4 -20 10 -7 -20 3
-20 -20 -20 -20 -20 -20 -20 -20 -20 -20 -20 4 -14 -7 -20 -19 -20 -20 -20 -20 -20 -20 -20 -20 -20 -20 11 -4 -12 -20 -17 -19 9 25 -19 -11 -16 -20 -6 -20 12 -20 -20 -10
-20 -20 -20 -20 -20 -20 -20 -20 -20 -20 -20 10 -20 -14 -19 -20 -20 -20 -20 -20 -20 -20 -20 -20 -20 -20 -0 10 -5 -18 -19 -16 -20 16 25 31 24 12 -17 -16 11 -19 -20 6
-20 -20 -20 -20 -20 -20 -20 -20 -20 -20 -7 13 -2 -6 -6 -20 -20 -20 -20 -20 -20 -20 -20 -20 -20 -20 -20 14 11 -14 -15 -3 6 -0 -10 -10 9 -6 -20 -20 -13 -9 -15 -20
-20 -20 -20 -20 -20 -20 -20 -20 -20 -17 11 5 6 -1 -14 -19 -20 -20 -20 -20 -20 -20 -20 -20 -20 -20 -20 5 18 2 -20 -17 -16 -20 -3 14 -1 -20 -20 -20 1 12 -17 8
-20 -20 -20 -20 -20 -20 -20 -20 -8 16 9 1 4 -7 -17 -19 -14 -20 -20 -20 -20 -20 -20 -20 -20 -20 -20 -14 16 19 -6 -0 -0 -16 -20 1 -19 -5 -20 -20 -20 -20 -19 10
-20 -20 -20 -20 -20 -20 -20 -20 14 13 12 8 8 -2 -19 -15 -4 -20 -20 -20 -20 -20 -20 -20 -19 -20 -20 -20 14 20 17 -13 -9 -19 -20 -20 4 -2 -20 -20 -20 0 -20 20
-20 -20 -20 -20 -20 -20 -19 -20 9 18 18 11 10 -20 -19 4 2 -17 -20 -20 -20 -20 -20 -20 -19 -17 -20 -20 -8 20 15 2 -13 -18 -18 -19 -18 -13 -20 -16 -2 -3 0 22
-20 -20 -20 -20 -20 -20 -3 -3 15 19 14 14 -14 -9 -5 4 -1 -19 -20 -20 -20 -20 -20 -20 -1 -19 -20 -17 -16 10 22 18 13 2 7 -10 -17 -14 -20 -17 -9 -15 16 18
-20 -20 -20 -20 -20 -20 -18 2 16 12 9 -13 -5 1 0 4 -15 -20 -20 -20 -20 -20 -17 -20 -20 -17 -20 -20 -12 -20 19 23 20 18 12 15 10 5 -3 11 13 6 18 23
-20 -20 -20 -20 -20 -20 -20 9 6 14 3 -19 -9 -4 -7 0 -7 -20 -20 -20 -20 -20 -20 -20 -20 -2 -20 -20 -20 -20 -18 21 22 18 20 23 20 18 14 13 1 21 21 9
-20 -20 -20 -20 -20 -20 3 13 15 2 -20 -20 -6 2 -0 2 -17 -20 -20 -20 -20 -5 -20 -20 -3 -8 -12 -20 -20 -20 -20 -9 21 22 22 20 20 18 22 22 8 6 -17 9
-20 -20 -20 -20 -20 -20 5 11 5 -18 -20 -20 -9 -6 -1 0 -17 -14 -20 -20 -20 -7 -20 -20 3 1 -20 -20 -20 -20 -20 -20 -6 22 19 16 14 17 9 14 12 5 -8 -10
-20 -20 -20 -20 -20 -14 3 4 -20 -18 -4 -12 -11 -5 1 1 -16 -20 -20 -20 -13 -20 -20 -16 -2 2 -20 -20 -20 -20 -20 -20 -20 3 21 14 14 16 16 12 5 7 11 17
-20 -20 -20 -20 -20 -20 -9 2 -18 8 1 0 -3 -1 4 1 -11 -20 -20 -20 -20 -20 -20 -20 -8 -17 -20 -20 -20 -20 -20 -20 -20 -14 13 16 11 9 22 20 18 17 17 20
-20 -20 -20 -20 -9 -3 6 -3 7 2 5 -2 -6 0 2 2 -3 -20 -20 -20 -20 -20 -20 -20 -20 -20 -20 -20 -20 -20 -20 -20 -20 -20 -19 9 12 13 14 23 19 18 19 21
-20 -18 -18 -20 -2 -7 3 10 -2 2 3 -4 -8 1 -2 -2 -9 -20 -20 -20 -20 -20 -20 -20 -20 -20 -20 -20 -20 -20 -20 -20 -20 -20 -20 -20 0 6 15 16 13 18 18 12
Wind_Speed
12 18 7 20 11 11 15 10 11 24 11 26 21 26 23 18 11 12 18 19 18 20 20 20 19 18 18 18 17 17 16 16 17 16 16 16 16 16 15 15 15 13 13 13
7 14 6 13 10 17 20 18 17 29 37 31 31 19 10 13 11 18 18 19 21 19 21 21 20 19 19 19 19 18 17 17 17 16 16 16 16 16 15 15 15 15 16 16
9 5 13 10 11 16 7 8 9 11 20 2 5 13 9 8 14 17 16 20 22 21 20 21 20 20 21 20 19 19 19 17 17 16 16 16 15 15 16 15 14 16 15 15
9 10 4 7 2 4 12 10 23 18 21 19 14 9 11 13 11 12 18 20 21 19 20 21 20 21 20 21 20 20 20 18 16 15 16 16 15 15 15 14 15 14 14 15
3 3 17 6 3 6 6 13 19 21 21 15 6 7 11 4 5 13 16 15 18 18 20 21 21 20 20 21 19 19 19 15 15 12 15 15 16 15 13 13 13 14 13 15
1 5 7 7 4 4 4 11 7 9 11 9 3 6 6 5 6 14 12 13 18 19 19 20 19 20 20 20 20 17 18 10 11 4 9 11 12 13 12 11 12 11 13 13
7 8 14 16 9 7 3 12 6 9 8 6 6 9 6 9 11 13 13 14 16 17 17 19 19 18 20 19 18 19 18 7 4 3 7 8 9 10 10 11 12 13 13 12
4 5 16 11 8 11 8 2 3 5 6 9 12 11 9 12 13 16 16 16 16 16 18 19 19 17 19 19 19 19 17 5 2 2 4 6 8 9 10 11 12 11 11 11
17 16 6 15 17 7 1 4 4 4 6 9 7 7 7 8 11 15 15 14 15 15 19 19 18 17 19 20 19 18 15 6 4 5 6 7 9 9 8 10 9 10 10 9
4 18 28 22 21 18 14 13 5 5 5 6 6 6 8 9 10 11 14 13 14 16 18 20 18 19 17 18 19 18 15 13 4 6 5 7 7 7 8 8 9 10 10 10
16 24 29 19 17 8 5 5 5 5 6 7 6 7 6 7 10 11 13 12 13 14 16 20 20 19 19 17 18 16 14 13 3 4 5 6 7 7 7 9 10 8 8 10
15 24 13 21 2 1 6 7 9 8 6 5 6 6 4 8 8 8 12 11 13 15 16 20 20 20 19 17 17 15 13 10 10 4 5 5 6 6 17 17 19 19 16 11
28 28 20 11 5 3 5 6 6 8 7 5 3 3 3 4 4 14 12 11 12 15 16 18 19 20 19 18 17 14 13 12 10 9 4 4 7 7 8 12 16 17 19 16
18 18 26 10 15 7 6 6 7 4 3 3 2 3 3 4 6 8 10 11 12 13 15 17 18 19 20 20 17 15 13 19 9 8 4 2 4 5 6 7 7 8 14 13
18 14 24 17 0 3 4 5 6 6 5 3 3 4 3 5 6 8 10 11 12 11 13 16 19 20 18 20 17 15 12 10 10 8 7 3 2 4 5 5 5 5 4 9
21 8 7 10 13 5 6 5 5 7 5 3 4 5 4 5 7 7 8 7 7 12 16 15 17 19 18 19 17 12 11 21 16 8 8 6 2 2 3 4 6 5 7 7
14 20 6 7 8 6 11 8 8 5 5 5 4 2 2 4 6 6 7 7 7 9 13 12 17 16 18 18 16 11 10 11 20 9 8 7 5 3 4 3 6 6 3 5
14 17 17 14 5 7 7 8 6 5 5 4 2 1 3 4 5 8 9 10 8 9 9 13 15 16 17 16 15 12 11 11 10 10 8 9 7 6 3 5 5 4 3 2
7 11 8 8 6 5 7 8 7 5 5 4 3 1 1 4 5 6 7 9 10 12 14 16 23 17 16 18 19 10 11 12 11 11 10 14 10 9 7 4 1 3 4 4
8 3 3 2 1 4 8 6 8 6 5 5 2 1 2 3 4 5 5 7 7 8 11 14 16 11 14 15 21 10 11 11 11 10 10 9 10 9 8 12 8 4 3 1
6 3 2 2 3 4 6 9 8 7 6 5 4 2 2 4 3 4 3 5 9 12 13 19 13 10 9 14 12 8 9 10 9 9 9 9 10 9 9 10 9 6 2 2
3 2 3 3 4 6 6 6 6 6 5 4 3 1 2 3 4 4 2 3 8 19 11 9 8 20 15 19 8 9 9 10 9 8 8 7 7 8 8 8 8 9 8 6
5 4 3 3 4 5 6 4 4 5 5 4 4 2 1 2 1 4 5 7 7 12 7 8 18 23 22 9 8 9 10 11 10 10 9 9 8 8 8 8 7 7 6 6
3 3 4 5 5 6 6 5 3 3 3 3 3 2 2 1 1 1 3 8 13 13 10 12 15 22 20 8 8 8 9 10 10 9 9 15 9 9 8 8 8 6 5 5
6 4 5 7 8 6 6 6 4 3 3 3 3 2 2 1 1 2 2 4 11 9 6 14 18 21 9 8 8 8 8 9 10 9 9 8 9 8 7 7 7 8 6 5
7 7 7 9 6 6 6 6 5 4 4 3 2 2 2 1 1 3 2 5 4 8 5 6 8 9 8 9 9 9 8 9 11 10 11 9 9 8 8 9 8 7 6 5
6 10 5 5 4 5 6 7 6 6 7 4 2 2 2 0 2 2 4 3 4 4 5 6 6 9 8 9 9 10 9 9 14 12 11 10 9 8 8 7 7 7 6 6
Wind_Direction
271 273 249 263 228 182 204 201 199 273 222 274 289 299 306 312 303 304 316 312 310 311 309 309 306 302 301 297 293 288 280 269 262 254 246 241 236 230 224 221 223 219 217 222
269 268 228 260 240 213 221 240 255 263 277 271 272 289 285 289 302 314 308 303 310 307 308 310 310 308 305 300 296 291 283 271 264 254 244 235 226 223 218 217 216 218 221 218
275 322 298 278 227 187 187 209 196 199 244 74 288 288 292 290 302 302 301 306 309 312 311 313 311 309 306 302 300 294 284 273 261 249 237 232 221 212 212 212 210 215 217 216
281 320 332 253 175 178 191 233 209 265 270 275 278 275 282 277 279 293 305 307 308 311 312 313 309 307 304 303 302 293 286 277 261 240 227 220 217 212 207 207 207 212 213 215
304 249 285 286 182 156 174 279 230 225 259 269 302 309 279 243 212 281 298 299 301 306 307 311 308 309 309 307 306 303 306 283 274 241 219 202 207 204 200 200 203 209 210 211
147 250 269 253 177 142 133 280 196 194 233 255 36 324 271 240 261 296 298 301 306 308 311 309 310 312 313 311 313 317 314 328 304 219 189 193 198 195 194 195 203 205 207 208
228 258 277 254 174 159 70 290 188 174 222 172 220 216 269 305 300 298 299 306 307 312 310 311 313 314 316 317 317 322 317 310 325 223 198 188 186 188 190 191 199 201 202 202
199 225 274 135 114 183 233 235 170 194 209 227 237 269 282 290 301 307 311 317 315 315 316 317 317 320 317 322 321 322 321 286 264 200 199 176 183 190 196 191 198 194 199 203
197 212 236 193 251 256 128 249 221 214 207 217 246 258 291 289 302 303 308 312 315 317 317 317 322 325 319 320 328 323 319 282 205 202 204 190 186 191 192 195 195 197 195 197
13 249 248 258 260 256 242 240 199 197 187 185 251 272 286 290 296 306 310 313 312 321 319 317 324 323 324 319 334 329 329 320 196 191 196 204 188 197 190 193 202 204 193 196
259 279 285 264 265 278 236 178 166 173 200 208 225 269 259 286 299 302 304 311 322 315 317 316 323 323 328 328 338 335 329 330 222 197 209 197 196 198 196 209 213 201 199 205
260 273 280 295 8 317 183 206 185 172 217 209 206 247 278 290 293 295 298 319 316 314 320 319 322 324 329 337 340 337 331 329 320 224 196 200 191 212 219 208 213 208 211 233
258 269 276 296 267 216 214 202 171 180 211 188 197 218 234 285 293 310 314 312 318 317 314 314 321 325 329 339 338 340 332 324 323 312 201 211 190 176 193 220 214 227 227 230
255 280 285 240 268 204 186 183 179 155 200 198 194 221 245 270 291 302 307 307 304 313 313 317 321 325 329 338 336 342 335 333 324 319 303 192 190 185 175 191 212 219 231 217
271 249 255 284 95 189 125 138 169 194 199 203 211 256 267 289 298 297 304 312 310 314 316 324 329 328 331 336 335 343 338 336 334 338 321 296 200 195 192 169 202 204 226 222
300 276 288 239 266 191 158 180 194 209 185 195 216 245 257 282 284 286 293 300 321 325 311 315 323 321 337 335 335 342 341 346 357 352 334 340 344 201 187 184 204 213 207 203
298 303 310 264 238 204 208 197 206 196 173 191 215 219 283 320 293 298 305 308 299 309 300 313 321 323 341 335 344 338 343 341 357 358 348 341 331 268 207 202 214 212 206 183
265 272 277 267 227 208 201 180 187 176 184 181 176 258 347 346 314 309 320 315 327 330 315 333 323 341 340 336 352 337 342 342 351 357 346 349 353 341 312 224 217 193 157 212
291 289 290 252 239 196 163 166 168 164 148 173 197 227 326 287 297 298 319 323 335 343 335 332 329 336 347 344 357 339 342 347 352 356 352 357 1 359 352 347 262 178 156 179
298 303 321 318 96 138 152 136 140 155 170 185 159 291 309 320 311 320 330 313 297 303 318 318 333 337 350 348 353 342 345 348 348 353 358 1 4 357 353 8 2 355 17 200
293 306 121 153 125 133 143 141 153 165 174 190 166 221 305 301 321 331 331 326 318 327 351 331 324 351 353 357 347 345 348 347 346 355 355 357 356 2 360 359 358 358 346 256
261 222 163 158 149 130 136 142 150 148 164 178 170 208 307 318 355 346 315 299 324 340 346 316 330 359 0 357 340 345 351 352 347 355 357 4 5 359 360 356 7 3 359 358
248 226 169 157 179 144 128 156 170 155 173 175 166 173 236 280 331 8 346 331 333 345 338 312 357 2 3 346 346 350 347 350 355 353 349 358 4 1 360 1 360 8 355 351
213 208 196 137 136 140 169 189 188 175 170 163 175 185 215 275 24 107 296 336 333 2 347 338 358 3 2 337 348 356 350 343 350 0 354 357 353 355 359 359 2 358 1 1
220 202 173 166 177 192 171 166 159 168 177 192 192 207 213 213 146 358 342 328 345 354 332 341 1 360 348 340 342 356 352 343 353 354 359 355 350 349 354 356 353 352 348 0
213 209 202 188 199 184 167 160 182 186 189 185 190 221 230 222 36 42 360 1 336 350 341 335 351 350 343 341 346 346 352 346 350 352 354 350 352 353 352 351 348 349 346 351
225 213 186 166 170 184 166 176 176 191 194 175 175 208 204 134 49 45 18 356 338 330 341 339 348 345 351 354 346 344 348 0 0 359 349 347 352 353 349 346 347 347 343 357